Flag for Germany Weather past 2 weeks in Offenburg, Baden-Württemberg, Germany

Now
52 °F

Overcast.


Feels Like: 49 °F
Forecast: 46 / 51 °F
Wind: 8 mph from South

Location: Lahr

Current Time: Mar 30, 2015 at 1:13:57 AM

Latest Report: Mar 30, 2015 at 12:00 AM


Visibility: 44 mi

Pressure: 29.67 "Hg

Humidity: 86%

Dew point: 48 °F

Location of OffenburgLocation

Historic Weather in Offenburg — Graph

°F

Offenburg temperature yesterday

Maximum temperature yesterday: 54 °F (at 8:00 PM)
Minimum temperature yesterday: 49 °F (at 12:00 AM)
Average temperature yesterday: 52 °F

Past Weeks' High & Low Weather Summary

 TemperatureHumidityPressure
High64 °F (Mar 18, 5:00 PM)99% (Mar 18, 7:00 AM)30.31 "Hg (Mar 18, 7:00 AM)
Low30 °F (Mar 15, 6:00 AM)38% (Mar 20, 3:00 PM)29.66 "Hg (Mar 24, 11:00 PM)
Average46 °F74%30.06 "Hg
* Reported Mar 14 10:00 PM — Mar 29 11:00 PM, Offenburg, Weather by CustomWeather, © 2015

Note: Actual official high and low records may vary slightly from our data, if they occured in-between our weather recording intervals... More about our weather records

Advertising

Offenburg weather history for previous 24 hours

 ConditionsComfort  
Time TempWeatherWind HumidityBarometerVisibility
11:00 PM
Sun, Mar 29
51 °FOvercast.9 mph91%29.67 "Hg43 mi
10:00 PM52 °FLight freezing rain. Overcast.9 mph90%29.69 "Hg13 mi
9:00 PM52 °FLight rain. Low clouds.9 mph87%29.70 "Hg9 mi
8:00 PM54 °FLight rain. Low clouds.10 mph77%29.70 "Hg19 mi
7:00 PM54 °FLight rain. Low clouds.12 mph77%29.71 "Hg22 mi
6:00 PM53 °FLight rain. Low clouds.12 mph78%29.74 "Hg31 mi
5:00 PM53 °FLight rain. Low clouds.12 mph77%29.76 "Hg37 mi
4:00 PM53 °FLight rain. Overcast.13 mph77%29.79 "Hg16 mi
3:00 PM53 °FLight rain. Low clouds.10 mph80%29.83 "Hg12 mi
2:00 PM53 °FLight rain. Overcast.8 mph80%29.85 "Hg12 mi
1:00 PM53 °FLight rain. Overcast.8 mph71%29.87 "Hg19 mi
12:00 PM53 °FRain. Overcast.8 mph74%29.90 "Hg15 mi
11:00 AM53 °FLight rain. Overcast.7 mph74%29.90 "Hg18 mi
10:00 AM53 °FOvercast.6 mph75%29.93 "Hg31 mi
9:00 AM52 °FOvercast.7 mph79%29.94 "Hg18 mi
8:00 AM51 °FRain. Low clouds.8 mph82%29.96 "Hg19 mi
7:00 AM52 °FOvercast.8 mph75%29.95 "Hg18 mi
5:00 AM52 °FDrizzle. Overcast.7 mph83%29.98 "Hg16 mi
4:00 AM51 °FOvercast.6 mph85%30.01 "Hg19 mi
3:00 AM50 °FOvercast.5 mph86%30.03 "Hg15 mi
1:00 AM51 °FOvercast.7 mph85%30.03 "Hg15 mi
Weather by CustomWeather, © 2015

See weather overviewHow to use our weather pages